DFOA weather

Dano Airport
Dano, Ioba, Burkina Faso

Public forecast

Using degrees Celsius for public forecast. Weather courtesy of forecast.io.

Closest aviation weather report (METAR) to Dano Airport

Report is more than 6 hours old.

Closest report is Gaoua Airport, 45.3 nm (83.9 km) S. Retrieved 2009/09/21 17:00 UTC (11 years ago):

DFOG 211700Z 18004KT 9999 FEW020 FEW040CB NW NE BKN260 30/23

Closest aviation forecast (TAF) to Dano Airport

Closest forecast is Bobo Dioulasso Airport, 74.5 nm (137.9 km) W. Retrieved 2020/06/07 06:12 UTC (24 minutes ago):

TAF DFOO 070500Z 0706/0806 20010KT 9999 FEW020 TEMPO 0714/0724 4000 TSRA SCT020 SCT033CB